Location: Ardick
(31.4613°N, 81.4334°W)
Time: 06:12:55
(UTC+00:00)

Envisat - Visible Passes

Search period start: 18 September 2021 00:00
Search period end: 28 September 2021 00:00
Orbit: 764 x 766 km, 98.2° (Epoch: 17 September)

Date Brightness Start Highest point End Pass type
(mag) Time Alt. Az. Time Alt. Az. Time Alt. Az.
18 Sep 4.3 10:04:14 10° NNE 10:09:03 43° E 10:13:51 10° S visible
19 Sep 5.8 09:28:41 10° NE 09:32:02 18° E 09:35:22 10° SE visible
20 Sep 3.1 10:29:19 10° NNE 10:34:24 82° ESE 10:39:28 10° S visible
21 Sep 4.8 09:52:57 10° NE 09:57:30 33° E 10:02:02 10° SSE visible
22 Sep 6.0 09:18:05 10° ENE 09:20:26 13° E 09:22:47 10° ESE visible
23 Sep 3.5 10:17:51 10° NNE 10:22:54 63° E 10:27:54 10° S visible
24 Sep 5.3 09:41:48 10° NE 09:45:57 25° E 09:50:05 10° SSE visible
25 Sep 3.0 10:43:08 10° N 10:48:12 70° WNW 10:53:14 10° SSW visible
26 Sep 4.1 10:06:29 10° NNE 10:11:22 47° E 10:16:14 10° S visible
27 Sep 5.7 09:30:47 10° NE 09:34:23 19° E 09:37:56 10° SE visible
